Weather History for Tacoma Narrows, WA

Change the Weather History Date:

Thursday, March 13, 2014

  Actual Average Record
Temperature  
Mean Temperature 46 °F -  
Max Temperature 55 °F 49 °F 63 °F (2005)
Min Temperature 37 °F 39 °F 32 °F (2009)
Degree Days  
Heating Degree Days 19    
Moisture  
Dew Point 40 °F    
Average Humidity 81    
Maximum Humidity 97    
Minimum Humidity 59    
Precipitation  
Precipitation 0.02 in - - ()
Sea Level Pressure  
Sea Level Pressure 30.13 in    
Wind  
Wind Speed 2 mph (SSW)    
Max Wind Speed 10 mph    
Max Gust Speed -    
Visibility 8 miles    
Events Rain    
Averages and records for this station are not official NWS values.
T = Trace of Precipitation, MM = Missing Value Source: NWS Daily Summary

Daily Weather History Graph

Daily Weather History Graph

Search for Another Location

Airport:

Trip Planner

Search our weather history database for the weather conditions in past years. The results will help you decide how hot, cold, wet, or windy it might be!

Date:

Astronomy

Mar. 13, 2014 Rise Set
Actual Time 7:26 AM PDT 7:13 PM PDT
Civil Twilight 6:56 AM PDT 7:43 PM PDT
Nautical Twilight 6:21 AM PDT 8:19 PM PDT
Astronomical Twilight 5:44 AM PDT 8:55 PM PDT
Moon 4:36 PM PDT (3/13) 5:45 AM PDT (3/13)
Length of Visible Light 12h 47m
Length of Day
11h 46m
Waxing Gibbous, 92% of the Moon is Illuminated
Mar 13
Waxing Gibbous
Mar 16
Full
Mar 23
Last Quarter
Mar 30
New
Apr 7
First Quarter

Hourly Weather History & Observations

Time (PDT) Temp. Windchill Dew Point Humidity Pressure Visibility Wind Dir Wind Speed Gust Speed Precip Events Conditions
12:53 AM 43.0 °F - 36.0 °F 76% 30.19 in 10.0 mi Calm Calm - N/A   Clear
1:53 AM 44.1 °F - 37.0 °F 76% 30.19 in 10.0 mi Calm Calm - N/A   Mostly Cloudy
2:53 AM 41.0 °F - 35.1 °F 79% 30.18 in 10.0 mi Calm Calm - N/A   Clear
3:53 AM 42.1 °F - 37.0 °F 82% 30.17 in 10.0 mi Calm Calm - N/A   Clear
4:53 AM 43.0 °F 41.3 °F 39.0 °F 86% 30.17 in 10.0 mi NNE 3.5 mph - N/A   Clear
5:53 AM 41.0 °F 38.0 °F 37.9 °F 89% 30.15 in 10.0 mi North 4.6 mph - N/A   Clear
6:53 AM 37.9 °F - 37.0 °F 97% 30.16 in 9.0 mi Calm Calm - N/A   Partly Cloudy
7:53 AM 39.9 °F - 37.9 °F 93% 30.16 in 3.0 mi Calm Calm - N/A   Mostly Cloudy
8:04 AM 39.9 °F - 39.0 °F 97% 30.16 in 4.0 mi Calm Calm - N/A   Scattered Clouds
8:05 AM 39.9 °F - 39.0 °F 97% 30.16 in 4.0 mi Calm Calm - N/A   Scattered Clouds
8:33 AM 41.0 °F - 39.0 °F 93% 30.17 in 3.0 mi Calm Calm - N/A   Scattered Clouds
8:53 AM 42.1 °F - 39.9 °F 92% 30.17 in 3.0 mi Calm Calm - N/A   Scattered Clouds
8:55 AM 42.1 °F - 39.9 °F 92% 30.17 in 3.0 mi Calm Calm - N/A   Mostly Cloudy
9:30 AM 44.1 °F - 41.0 °F 89% 30.17 in 3.0 mi Calm Calm - N/A   Overcast
9:53 AM 44.1 °F 41.5 °F 41.0 °F 89% 30.19 in 4.0 mi NW 4.6 mph - N/A   Mostly Cloudy
10:43 AM 46.0 °F - 41.0 °F 83% 30.17 in 5.0 mi Calm Calm - N/A   Haze
10:53 AM 46.0 °F 43.9 °F 41.0 °F 83% 30.18 in 6.0 mi South 4.6 mph - N/A   Haze
10:54 AM 46.0 °F 43.9 °F 41.0 °F 83% 30.18 in 6.0 mi South 4.6 mph - N/A   Haze
11:05 AM 44.1 °F 40.8 °F 41.0 °F 89% 30.16 in 7.0 mi SE 5.8 mph - N/A   Scattered Clouds
11:53 AM 48.0 °F - 39.9 °F 74% 30.16 in 10.0 mi Calm Calm - N/A   Scattered Clouds
12:53 PM 48.9 °F - 37.9 °F 66% 30.13 in 10.0 mi SE 3.5 mph - N/A   Scattered Clouds
1:53 PM 52.0 °F - 42.1 °F 69% 30.12 in 10.0 mi South 6.9 mph - N/A   Clear
2:53 PM 54.0 °F - 39.9 °F 59% 30.10 in 10.0 mi SSW 6.9 mph - N/A   Clear
3:53 PM 54.0 °F - 39.9 °F 59% 30.09 in 10.0 mi South 6.9 mph - N/A   Mostly Cloudy
4:53 PM 54.0 °F - 39.9 °F 59% 30.07 in 10.0 mi Calm Calm - N/A   Clear
5:53 PM 55.0 °F - 41.0 °F 59% 30.06 in 10.0 mi Calm Calm - N/A   Clear
6:53 PM 54.0 °F - 41.0 °F 62% 30.05 in 10.0 mi SW 5.8 mph - N/A   Scattered Clouds
7:53 PM 52.0 °F - 43.0 °F 71% 30.04 in 10.0 mi SW 3.5 mph - N/A   Mostly Cloudy
8:53 PM 50.0 °F - 43.0 °F 77% 30.04 in 10.0 mi WSW 5.8 mph - 0.00 in Rain Light Rain
9:53 PM 50.0 °F - 43.0 °F 77% 30.04 in 10.0 mi SW 4.6 mph - 0.00 in   Overcast
10:53 PM 48.0 °F - 44.1 °F 86% 30.04 in 10.0 mi SSW 5.8 mph - 0.00 in Rain Light Rain
11:12 PM 48.0 °F - 45.0 °F 89% 30.03 in 6.0 mi South 8.1 mph - 0.01 in Rain Light Rain
11:21 PM 48.0 °F - 45.0 °F 89% 30.03 in 10.0 mi South 8.1 mph - 0.01 in Rain Light Rain
11:53 PM 48.0 °F - 45.0 °F 89% 30.03 in 10.0 mi South 10.4 mph - 0.02 in Rain Light Rain